カタログに戻る

SL-12 DEB

LostHEO
NORAD 41697·DEBRIS·🇷🇺 Russia

打ち上げ Mar 1, 2010 から Baikonur Cosmodrome

Loading…

次のパス (今後24時間)

TLE

古いSource: Space-Track

元期: Sep 12, 2024, 19:09 UTC

1 41697U 10007P   24256.79819583 -.00020108  00000-0 -67108+0 0  9998
2 41697  65.4025 189.0905 5500021 315.9869  11.4576  4.16119980152705

AllMySatでSL-12 DEBをリアルタイム追跡

Download on the App Store